Tracking 17264 objects as of 2-September-2015
HD Live streaming from Space Station

Track Soyuz TMA-18M
and Space Station

AMC-4 (GE-4)

Track AMC-4 (GE-4) now!
AMC-4 (GE-4) is classified as:


NORAD ID: 25954
Int'l Code: 1999-060A
Perigee: 35,785.7 km
Apogee: 35,802.0 km
Inclination: 0.0 °
Period: 1,436.1 minutes
Semi major axis: 42164 km
RCS: 18.9697 m2 (large)
Launch date: November 13, 1999
Source: SOCIETE EUROPEENNE DES SATELLITES (SES)

Broadcasting, cable, internet; CONUS, Canada, Mexico, Caribbean, Central America, South America; 28 Ku- and 24 C-band
Your satellite tracking list
Your tracking list is empty





NASA's NSSDC Master Catalog

Two Line Element Set (TLE):
1 25954U 99060A   15245.10873181 -.00000300  00000-0  10000-3 0  9993
2 25954   0.0136 259.5724 0001933 231.6239 181.8910  1.00271294 57964

Source of the keplerian elements: AFSPC

N2YO: 459